ONEWEB-0094, 45450

Orbit data source: Space-Track

ONEWEB-0094, 45450 is a payload satellite owned by One Web (UK) in LEO that was launched on Sat, 21 Mar 2020 UTC via a SOYUZ-2-1B launch vehicle from the Tyuratam Missile And Space Complex (TTMTR). Payload-class satellites include a variety of spacecraft equipped with specific instruments for various scientific and technological missions. These include communications satellites like Starlink; space stations such as the ISS; scientific satellites like the Hubble; Earth observation satellites from companies like Planet Labs, Umbra, and HawkEye 360; GPS; miniature CubeSats for education and research; and military/defense satellites.

Loading next visibility...
Identifier
45450, 2020-020AC
Orbit
LEO
Country
Flag of UKUK
Related business
Manufacturer
One Web
Mission
Operational Commercial Communications
Bus & Motor
ARROW, Unknown motor
Mass
148 kg wet, ~140 kg dry
Launch date (UTC)
2020-03-21 (6 years ago)
Launch vehicle
SOYUZ-2-1B
Launch site
Tyuratam Missile And Space Complex (TTMTR)
Object type
Payload
Rocket body
Debris
Shape & HBR
Trap Box + 2 Pan, 6.7 m
Radar Cross Section
3.464 m², Medium (>0.1 m² and < 1m²)

Expand to show TLE details & history
Last TLE update: 12 hours ago

TLE from 12 hours ago
0 ONEWEB-0094
1 45450U 20020AC  26038.04833480 -.00000033  00000-0 -11694-3 0  9993
2 45450  87.9110  31.6908 0001700  87.0686 273.0640 13.17646592289179
Epoch: 2026-02-07T01:09Z
TLE epoch observation values (Epoch: 2026-02-07T01:09:36.126Z)
Latitude
-0.00004°
Longitude
-122.88718°
Altitude
1,196.552 km
Speed
7.256 km/s
True Right ascension
02h 06m 45s
True Declination
0° 00' 00"
Sunlit
Object was in daylight at epoch
Visualization orbit readout
Latitude
Unknown
Longitude
Unknown
Altitude
Unknown
Speed
Unknown
Apparent Right ascension
Unknown
Apparent Declination
Unknown
Sunlit
N/A
Visualization observer readout
Local Sidereal Time
15:09:25
Azimuth
Unknown
Elevation
Unknown
Doppler factor
Unknown
Orbital elements
Apogee altitude
1,192.118 km
Perigee altitude
1,189.545 km
Semi-major axis
7,568.968 km
Eccentricity
0.00017
Inclination
87.911°
RAAN
31.6908°
Arg. of periapsis
87.0686°
True anomaly
273.04455°
Mean anomaly
273.064°
Eccentric anomaly
273.05427°
Mean motion
3.29601 °/min
Orbital period
109.22 mins
BSTAR
-0.00011694
Loading maneuver chart data...
Computing Atmospheric mass density...
Loading historical data...
Loading historical data...
Loading historical data...
Loading historical data...
Loading historical data...
Loading historical data...
Loading historical data...

Documentation

Showing up to 5 results
|